Regional Weather Roundup
Issued by NWS Green Bay, WI

Home | Current Version | Previous Version | Text Only | Print | Product List | Glossary On
Versions: 1 2 3 4 5 6 7 8 9 10 11 12 13 14 15 16 17 18 19 20 21 22 23 24 25 26 27 28 29 30 31 32 33 34 35 36 37 38 39 40 41 42 43 44 45 46 47 48 49 50
000
ASUS43 KGRB 170211
RWRGRB

NORTH-CENTRAL AND NORTHEAST WISCONSIN REGIONAL WEATHER ROUNDUP
NATIONAL WEATHER SERVICE GREEN BAY WI
900 PM CDT MON OCT 16 2017

WIZ005-009-010>012-018-019-170300-
NORTH CENTRAL WISCONSIN

CITY           SKY/WX    TMP DP  RH WIND       PRES   REMARKS
IRONWOOD       CLEAR     52  34  50 SW15G22   29.94F
MANITOWISH WTR CLEAR     44  34  68 S6        29.99F
ARBOR VITAE    CLEAR     47  36  66 S7        30.00F
EAGLE RIVER    CLEAR     45  32  61 S3        30.01F
LAND O LAKES   CLEAR     46  34  63 S6        30.01F
RHINELANDER    CLEAR     48  35  60 SW9       30.03F
PHILLIPS       CLEAR     47  35  63 S7        30.00F
ANTIGO         CLEAR     43  36  76 SW8       30.07S
TOMAHAWK       CLEAR     40  34  79 CALM      30.04F
MERRILL        CLEAR     46  36  68 S3        30.06F
$$

WIZ013-073-170300-
NORTHEAST WISCONSIN

CITY           SKY/WX    TMP DP  RH WIND       PRES   REMARKS
IRON MOUNTAIN  CLEAR     47  34  60 S6        30.03S
MARINETTE      CLEAR     51  40  65 SW7       30.08F
OCONTO         CLEAR     49  37  62 SW5       30.09S
$$

WIZ017-030-035>037-045-170300-
CENTRAL WISCONSIN

CITY           SKY/WX    TMP DP  RH WIND       PRES   REMARKS
MEDFORD        CLEAR     47  35  63 S7        30.04S
WAUSAU         CLEAR     49  38  65 S5        30.06F
MOSINEE        NOT AVBL
MARSHFIELD     CLEAR     46  35  65 S6        30.06F
WISC RAPIDS    CLEAR     48  38  68 S7        30.09F
STEVENS POINT  CLEAR     45  37  73 S6        30.09F
WAUPACA        CLEAR     46  38  72 CALM      30.10F
SHAWANO        CLEAR     50  38  63 CALM      30.09S
CLINTONVILLE   NOT AVBL
WAUTOMA        CLEAR     47  38  71 S3        30.11F
$$

WIZ038-039-048-051-170300-
FOX VALLEY

CITY           SKY/WX    TMP DP  RH WIND       PRES   REMARKS
NWS GREEN BAY  CLEAR     48  42  80 S6        30.11F
APPLETON       PTCLDY    46  36  66 SW7       30.10F
OSHKOSH        CLEAR     44  38  79 S6        30.12F
FOND DU LAC    CLEAR     45  37  73 S6        30.13F
$$

WIZ022-050-052-170300-
EAST CENTRAL WISCONSIN

CITY           SKY/WX    TMP DP  RH WIND       PRES   REMARKS
EPHRAIM        FAIR      47  37  70 S5        30.08S
WASHINGTON ISL NOT AVBL
STURGEON BAY   CLEAR     50  38  63 S10       30.10F
MANITOWOC      CLEAR     49  37  63 S6        30.14S
SHEBOYGAN      CLEAR     41  37  86 CALM      30.14F
$$

LMZ563-521-522-541>543-170300-
LAKESHORE

STATION/POSITION TIME  TEMP    WIND        PRES    VSBY  WAVE
                       AIR SEA DIR/SP/G                  HT/PER
                 (UTC) (F)     (DEG/KT/KT) (MB)    (MI)  (FT/S)
SHEBOYGAN LKSHOR 0200   54     210/  9/ 10 1020.8S
KEWAUNEE LKSHORE 0142   53     200/  8/ 10 1019.1F
NORTHPORT PIER   0140   51     180/  4/  9 1018.3F
N MID LAKE BUOY  0150   57 60  210/ 21/ 27 1018.6F         5/ 5
S GREEN BAY BUOY 0200   57 58  200/ 16/ 21 1018.4
SISTER BAY LKSHO 0204   52     190/ 12/ 15   N/A
MENOMINEE LKSHOR 0136   54     190/  8/ 11 1018.2F
$$




USA.gov is the U.S. government's official web portal to all federal, state and local government web resources and services.